www.pogodaiklimat.ru
ПОГОДА в Легаспи

Архив погоды в Легаспи (Филиппины)

Время
(UTC), дата
00 20.10
03 20.10
06 20.10
09 20.10
12 20.10
15 20.10
18 20.10
21 20.10
00 21.10
03 21.10
06 21.10
09 21.10
12 21.10
15 21.10
18 21.10
21 21.10
00 22.10
03 22.10
06 22.10
09 22.10
12 22.10
15 22.10
18 22.10
21 22.10
00 23.10
03 23.10
06 23.10
09 23.10
12 23.10
15 23.10
18 23.10
21 23.10
00 24.10
03 24.10
06 24.10
09 24.10
12 24.10
15 24.10
18 24.10
21 24.10
00 25.10
03 25.10
06 25.10
09 25.10
12 25.10
15 25.10
18 25.10
21 25.10
00 26.10
03 26.10
06 26.10
09 26.10
12 26.10
15 26.10
18 26.10
Ветер
(напр.,м/с)
Видим. Явления Облачность Т
(С)
Тd
(С)
f
(%)
Тe
(С)
Тes
(С)
Комфортность P
(гПа)
Po
(гПа)
Тmin
(С)
Tmax
(С)
R
(мм)
R24
(мм)
S
(см)
В 2 8000 м ливневой дождь 10/5 500 м
[Cb calv Ac As]
+25.7 +25.0 96 +37 +38 очень
душно
1014.8 1013.0 +25.0 8 7.9
З 1 12 км слаб. дождь {ливн. дождь} 10/4 540 м
[Cu med, cong As op]
+26.8 +25.5 93 +39 +42 очень
душно
1013.5 1011.7 70
штиль 0 18 км {ливн. дождь, дождь} 10/3 540 м
[Cu med, cong Ac trans Cs]
+28.2 +24.5 80 +40 +46 очень
душно
1011.5 1009.7 7
СВ 2 18 км 9/3 540 м
[Cu med, cong Ac trans Cs]
+28.9 +25.0 80 +42 +42 опасность
перегрева
1011.6 1009.8
штиль 0 15 км 8/3 540 м
[Cu med, cong Cs]
+26.2 +24.7 91 +37 +37 очень
душно
1012.7 1010.9 +29.2
штиль 0 15 км 8/3 540 м
[Cu med, cong Ac trans Cs]
+25.0 +24.2 95 +34 +34 очень
душно
1012.7 1010.9
штиль 0 15 км 9/3 540 м
[Cu med, cong Cs]
+24.3 +23.6 96 +33 +33 очень
душно
1011.4 1009.6
штиль 0 15 км 9/3 540 м
[Cu med, cong Ac trans Cs]
+23.8 +23.0 95 +32 +32 очень
душно
1011.2 1009.4
штиль 0 18 км 6/3 540 м
[Cb calv Ac trans Ci sp]
+27.4 +24.6 85 +39 +43 очень
душно
1012.2 1010.4 +23.8 7 6.8
В 2 18 км {ливн. дождь} 8/4 540 м
[Cb calv Ac trans Cs]
+31.1 +26.6 77 +48 +55 опасность
перегрева
1011.4 1009.6 0.0
С 2 12 км в посл. час гроза {ливн. дождь} 9/5 540 м
[Cb calv Ac As Cs]
+28.4 +26.2 88 +43 +47 опасность
перегрева
1010.1 1008.3 2
СВ 1 15 км 9/4 540 м
[Cb calv Ac trans Cs]
+28.5 +25.2 82 +41 +42 опасность
перегрева
1010.7 1008.9
штиль 0 12 км 9/4 540 м
[Cb calv Cs]
+27.4 +26.0 92 +41 +41 опасность
перегрева
1012.6 1010.8 +29.0
В 1 12 км в посл. час ливневой дождь 9/4 540 м
[Cb calv Cs]
+26.8 +24.4 87 +38 +38 очень
душно
1011.6 1009.8 5
СВ 1 12 км {ливн. дождь} 9/3 540 м
[Cu med, cong Cs]
+26.5 +24.5 89 +37 +37 очень
душно
1010.0 1008.2 5
СВ 2 15 км 9/3 540 м
[Cu med, cong Ac trans Cs]
+26.8 +25.5 93 +39 +39 очень
душно
1010.2 1008.4
СВ 3 18 км 8/1 540 м
[Cu med, cong Cs]
+29.1 +25.0 79 +42 +45 опасность
перегрева
1011.9 1010.1 +26.0 6 6.2
СВ 3 18 км 4/4 540 м
[Cu med, cong Ci fib]
+32.1 +25.5 68 +47 +55 опасность
перегрева
1011.3 1009.5
СВ 2 18 км 5/3 540 м
[Cu med, cong Cs]
+33.0 +25.9 66 +48 +56 опасность
перегрева
1009.1 1007.3
С 2
{9}
12 км слаб. ливневой дождь 10/5 540 м
[Cb calv Cs]
+28.0 +24.8 83 +40 +40 очень
душно
1010.6 1008.8 2
С 1 12 км {ливн. дождь} 10/4 540 м
[Cb calv Cs]
+27.0 +25.4 91 +39 +39 очень
душно
1011.7 1009.9 +33.0 7
С 1 8000 м слаб. ливневой дождь 10/4 540 м
[Cb calv Ac As Cs]
+26.8 +24.7 88 +38 +38 очень
душно
1011.1 1009.2 1
Ю 4
{10}
8000 м гроза, ливневой дождь 10/5 540 м
[Cb calv Ac As]
+26.2 +24.6 91 +37 +37 очень
душно
1010.0 1008.0 5
штиль 0 8000 м {гроза, ливн. дождь} 10/4 540 м
[Cb calv Ac As]
+25.2 +24.7 97 +35 +35 очень
душно
1009.7 1007.9 22
СВ 1 15 км ливневой дождь {гроза} 10/4 540 м
[Cb calv Ac As Cs]
+25.6 +23.5 88 +35 +36 очень
душно
1011.9 1010.1 +25.0 57 55.6
В 2 15 км слаб. дождь {ливн. дождь} 10/5 500 м
[Cu med, cong As op]
+25.1 +24.4 96 +35 +37 очень
душно
1012.9 1011.1 7
СВ 2 10 км слаб. дождь {ливн. дождь} 10/5 500 м
[Cu med, cong As op]
+24.9 +24.0 95 +34 +35 очень
душно
1009.9 1008.1 12
СВ 2 12 км в посл. час дождь 10/6 540 м
[Cb calv Ac As]
+26.2 +24.6 91 +37 +37 очень
душно
1010.2 1008.4 0.3
В 1 10 км {дождь} 10/3 540 м
[Cu med, cong Ac As]
+26.1 +24.9 93 +37 +37 очень
душно
1011.7 1009.9 +26.5 0.2
штиль 0 10 км слаб. ливневой дождь 10/5 540 м
[Cb calv Ac As Cs]
+26.0 +24.8 93 +37 +37 очень
душно
1011.8 1010.0 0.4
штиль 0 12 км в посл. час ливневой дождь 10/3 540 м
[Cu med, cong Ac As Cs]
+26.7 +24.6 88 +38 +38 очень
душно
1009.6 1007.8 1
штиль 0 12 км {ливн. дождь} 9/6 540 м
[Cb calv Ac As Cs]
+25.4 +25.0 98 +36 +36 очень
душно
1009.9 1008.1 0.0
СВ 1 15 км в посл. час ливневой дождь 9/4 540 м
[Cb calv Ac As Cs]
+27.0 +25.6 92 +40 +42 очень
душно
1011.4 1009.6 +25.4 20 19.5
В 1 18 км 9/4 540 м
[Cb calv Ac As Cs]
+29.4 +26.0 82 +44 +51 опасность
перегрева
1010.9 1009.1
В 1 12 км слаб. ливневой дождь {гроза} 10/5 540 м
[Cb calv Ac As Cs]
+28.7 +26.8 89 +45 +48 опасность
перегрева
1009.2 1007.4 1
СВ 2 15 км {ливн. дождь} 10/5 540 м
[Cb calv Ac As Cs]
+28.0 +25.5 86 +41 +41 опасность
перегрева
1009.7 1007.9 0.2
СВ 1 15 км {ливн. дождь} 9/5 540 м
[Cb calv Ac As Cs]
+27.1 +25.7 92 +40 +40 очень
душно
1011.0 1009.2 +29.6 0.6
штиль 0 н/о 10/4 540 м
[Cb calv Ac As Cs]
+26.2 +25.2 94 +38 +38 очень
душно
1011.6 1009.8
штиль 0 15 км 6/3 540 м
[Cu med, cong Cs]
+25.4 +24.9 97 +36 +36 очень
душно
1009.3 1007.5
СВ 1 15 км {ливн. дождь} 9/5 540 м
[Cb calv Ac As Cs]
+25.9 +24.6 93 +37 +37 очень
душно
1009.4 1007.6 0.9
СВ 1 18 км {ливн. дождь} 6/1 540 м
[Cu med, cong Ci fib]
+28.7 +25.2 81 +42 +46 опасность
перегрева
1010.4 1008.6 +25.4 3 2.5
СВ 4 12 км гроза, ливневой дождь 9/6 540 м
[Cb calv Ac As Cs]
+27.9 +26.3 91 +42 +45 опасность
перегрева
1010.9 1009.1 0.0
СВ 2 14 км в посл. час ливневой дождь 9/5 540 м
[Cb calv Ac As Cs]
+27.9 +25.3 86 +41 +44 опасность
перегрева
1009.0 1007.2 1
СВ 1 15 км 10/4 540 м
[Cb calv Ac As Cs]
+27.6 +24.3 82 +39 +39 очень
душно
1009.5 1007.7
штиль 0 15 км 9/3 540 м
[Cu med, cong Cs]
+26.1 +24.6 91 +37 +37 очень
душно
1010.6 1008.8 +30.9
СВ 2 15 км 6/3 540 м
[Cu med, cong Cs]
+26.7 +24.2 86 +37 +37 очень
душно
1010.5 1008.7
СВ 1 15 км 9/3 540 м
[Cu med, cong Ac trans Cs]
+27.1 +25.8 93 +40 +40 очень
душно
1009.7 1007.9
штиль 0 15 км 4/3 540 м
[Cu med, cong Ci sp]
+24.3 +23.4 95 +33 +33 очень
душно
1009.8 1008.0
СВ 1 18 км 9/3 540 м
[Cu med, cong Ac trans Cs]
+28.8 +24.7 79 +41 +43 опасность
перегрева
1011.2 1009.4 +24.3 1 1.0
СВ 2 18 км 9/4 540 м
[Cb calv Ac trans Cs]
+32.7 +26.3 69 +49 +55 опасность
перегрева
1011.0 1009.2
СВ 3
{10}
15 км {ливн. дождь} 9/4 540 м
[Cb calv Ac trans Cs]
+30.2 +26.1 79 +46 +49 опасность
перегрева
1009.2 1007.4 14
СВ 1 16 км 9/1 540 м
[Cu med, cong Ac trans Cs]
+28.8 +25.1 80 +42 +42 опасность
перегрева
1009.6 1007.8
СВ 1 15 км 6/1 540 м
[Cu med, cong Cs]
+27.6 +24.6 84 +39 +39 очень
душно
1011.2 1009.4 +32.7
СВ 1 15 км 8/3 540 м
[Cu med, cong Cs]
+26.9 +24.9 89 +39 +39 очень
душно
1011.4 1009.6
штиль 0 15 км 8/1 540 м
[Cu med, cong Cs]
+26.1 +24.8 93 +37 +37 очень
душно
1010.4 1008.6
Местоположение метеостанции Легаспи (Филиппины): широта 13.13 долгота 123.73 высота над уровнем моря 17 м.
В архиве по умолчанию представлена погода в Легаспи за последнюю неделю. Архивные данные за месяц целиком и за предыдущие месяцы, начиная с января 2011 года, Вы можете получить, выбрав интересующий диапазон дат из раскрывающегося списка и нажав кнопку "Найти!".
*Определитесь, кто Вы:
Внимание! Время в таблицах - всемирное. Для получения местного времени необходимо прибавить поправку, которая равна 8 ч.
Смотрите также архив погоды в соседних городах и на ближайших метеорологических станциях:
Партнеры нашего сайта:      
Пояснения к столбцам:
  • Ветер - указаны скорость ветра в м/с - средняя за 10 мин, порывы в срок и между сроками (в фигурных скобках) и направление, откуда дует ветер: С - северный,
  • СВ - северо-восточный, В - восточный, ЮВ - юго-восточный, Ю - южный, ЮЗ - юго-западный, З - западный, СЗ - северо-западный.
  • Видимость - горизонтальная дальность видимости в метрах или километрах. При видимости от 1 до 10 км при отсутствии осадков обычно наблюдается дымка, при ухудшении видимости до 1 км и менее - туман. В сухую погоду видимость может ухудшаться дымом, пылью или мглою.
  • Явления - указаны атмосферные явления, наблюдавшиеся в срок или в последний час перед сроком; фигурными скобками обозначены явления, наблюдавшиеся между сроками (за 1-3 часа до срока); квадратными скобками обозначены град или гололедные отложения с указанием их диаметра в мм.
  • Облачность - указаны через наклонную черту общая и нижняя облачность в баллах и высота нижней границы облаков в метрах; квадратными скобками обозначены формы облаков: Ci - перистые, Cs - перисто-слоистые, Cc - перисто-кучевые, Ac - высококучевые, As - высокослоистые, Sc - слоисто-кучевые, Ns - слоисто-дождевые, Cu - кучевые, Cb - кучево-дождевые. Подробнее классификацию облаков см. в Атласе облаков (PDF).
  • T - Температура воздуха - температура, измеренная на высоте 2 м над землей.
  • Td - Температура точки росы - температура, при понижении до которой содержащийся в воздухе водяной пар достигнет насыщения.
  • f - Относительная влажность воздуха - влажноcть воздуха, измеренная на высоте 2 м над землей.
  • Te - Эффективная температура - температура, которую ощущает одетый по сезону человек в тени. Характеристика душности погоды. При расчете учитывается влияние влажности воздуха и скорости ветра на теплоощущения человека.
  • Tes - Эффективная температура на солнце - температура, которую ощущает человек, с поправкой на солнечный нагрев. Характеристика знойности погоды. Зависит от высоты солнца над горизонтом, облачности и скорости ветра. Ночью, в пасмурную погоду, а также при ветре 12 м/с и более поправка равна нулю.
  • P - Атмосферное давление - приведенное к уровню моря атмосферное давление.
  • Po - Атмосферное давление - измеренное на уровне метеостанции атмосферное давление.
  • Tmin - Минимальная температура - минимум температуры воздуха на высоте 2 м над землей.
  • Tmax - Максимальная температура - максимум температуры воздуха на высоте 2 м над землей.
  • R - Количество осадков - Количество выпавших осадков за период времени, мм. При наведении курсора мыши на число - период времени, за который выпало указанное количество осадков.
  • R24 - Количество осадков - Количество выпавших осадков за 24 часа, мм.
  • S - Снежный покров - Высота снежного покрова, см. При наведении курсора мыши на число - состояние снежного покрова и степень покрытия местности в баллах.